Location: Barcelona
(41.3830°N, 2.1830°E)
Time: 13:10:56
(UTC+02:00)

ISS - Pass Details

Date: 03 April 2020
Orbit: 417 x 419 km, 51.6° (Epoch: 31 May)

Event Time Altitude Azimuth Distance (km) Brightness Sun altitude
Rises 20:55:09 0° 309° (NW) 2,366 1.4 -7.5°
Reaches altitude 10° 20:57:23 10° 319° (NW) 1,499 0.0 -7.9°
Maximum altitude 21:00:30 35° 27° (NNE) 699 -2.7 -8.4°
Enters shadow 21:03:17 12° 92° (E) 1,372 -1.8 -8.9°
